| time (UTC) | temp F | wind direction | speed knots | gust knots | rain 1hr in | rain 24hr in | rain mn in | humidity % | barometer mb |
| 20260504182515 | 78 | 236 | 0.9 | 0.9 | 0.00 | 0.00 | 0.00 | 34 | 1011.2 |
| 20260504182013 | 78 | 188 | 0.9 | 0.9 | 0.00 | 0.00 | 0.00 | 32 | 1011.1 |
| 20260504181510 | 78 | 243 | 1.7 | 1.7 | 0.00 | 0.00 | 0.00 | 33 | 1011.3 |
| 20260504181009 | 78 | 240 | 1.7 | 1.7 | 0.00 | 0.00 | 0.00 | 34 | 1011.4 |
| 20260504180507 | 78 | 278 | 0.9 | 0.9 | 0.00 | 0.00 | 0.00 | 32 | 1011.0 |
| 20260504180005 | 79 | 233 | 0.9 | 0.9 | 0.00 | 0.00 | 0.00 | 33 | 1011.3 |
| 20260504175502 | 78 | 281 | 0.9 | 0.9 | 0.00 | 0.00 | 0.00 | 34 | 1011.3 |
| 20260504174959 | 77 | 263 | 0.9 | 0.9 | 0.00 | 0.00 | 0.00 | 33 | 1011.3 |
| 20260504174457 | 77 | 262 | 0.0 | 0.0 | 0.00 | 0.00 | 0.00 | 34 | 1011.2 |
| 20260504173954 | 77 | 281 | 0.9 | 1.7 | 0.00 | 0.00 | 0.00 | 37 | 1011.5 |
| 20260504173450 | 78 | 256 | 1.7 | 1.7 | 0.00 | 0.00 | 0.00 | 34 | 1011.4 |
| 20260504172948 | 76 | 259 | 0.9 | 0.9 | 0.00 | 0.00 | 0.00 | 33 | 1011.5 |
| 20260504172443 | 76 | 239 | 0.9 | 1.7 | 0.00 | 0.00 | 0.00 | 34 | 1011.6 |
| 20260504171940 | 76 | 269 | 0.9 | 0.9 | 0.00 | 0.00 | 0.00 | 38 | 1011.7 |
| 20260504171437 | 75 | 34 | 1.7 | 1.7 | 0.00 | 0.00 | 0.00 | 36 | 1011.4 |
| 20260504170934 | 76 | 34 | 4.3 | 4.3 | 0.00 | 0.00 | 0.00 | 35 | 1011.9 |
| 20260504170430 | 76 | 265 | 0.9 | 0.9 | 0.00 | 0.00 | 0.00 | 35 | 1011.9 |
| 20260504160349 | 75 | 61 | 1.7 | 2.6 | 0.00 | 0.00 | 0.00 | 37 | 1013.0 |
| 20260504150814 | 70 | 184 | 0.9 | 0.9 | 0.00 | 0.00 | 0.00 | 42 | 1013.4 |
| 20260504150311 | 70 | 275 | 0.9 | 0.9 | 0.00 | 0.00 | 0.00 | 44 | 1013.3 |
| 20260504141241 | 63 | 281 | 0.9 | 0.9 | 0.00 | 0.00 | 0.00 | 57 | 1013.1 |
| 20260504140737 | 64 | 47 | 1.7 | 1.7 | 0.00 | 0.00 | 0.00 | 59 | 1013.3 |
| 20260504140233 | 64 | 338 | 0.9 | 1.7 | 0.00 | 0.00 | 0.00 | 60 | 1013.3 |
| 20260504130702 | 57 | 231 | 0.0 | 0.0 | 0.00 | 0.00 | 0.00 | 71 | 1013.1 |
| 20260504130158 | 56 | 234 | 0.0 | 0.9 | 0.00 | 0.00 | 0.00 | 70 | 1013.2 |
| 20260504120122 | 49 | 252 | 0.0 | 0.0 | 0.00 | 0.00 | 0.00 | 84 | 1013.1 |
| 20260504110549 | 38 | 288 | 0.0 | 0.0 | 0.00 | 0.00 | 0.00 | 99 | 1013.0 |
| 20260504100511 | 38 | 288 | 0.0 | 0.0 | 0.00 | 0.00 | 0.00 | 98 | 1013.0 |
| 20260504081904 | 39 | 286 | 0.0 | 0.0 | 0.00 | 0.00 | 0.00 | 97 | 1012.7 |
| 20260504081401 | 40 | 286 | 0.0 | 0.0 | 0.00 | 0.00 | 0.00 | 97 | 1012.8 |
| 20260504080856 | 40 | 286 | 0.0 | 0.0 | 0.00 | 0.00 | 0.00 | 96 | 1012.9 |
| 20260504080354 | 40 | 286 | 0.0 | 0.0 | 0.00 | 0.00 | 0.00 | 96 | 1012.6 |
| 20260504070321 | 41 | 354 | 0.0 | 0.0 | 0.00 | 0.00 | 0.00 | 95 | 1012.7 |
| 20260504060242 | 42 | 354 | 0.0 | 0.0 | 0.00 | 0.00 | 0.00 | 94 | 1013.1 |
| 20260504050703 | 43 | 354 | 0.0 | 0.0 | 0.00 | 0.00 | 0.00 | 92 | 1013.0 |
| 20260504050200 | 43 | 354 | 0.0 | 0.0 | 0.00 | 0.00 | 0.00 | 92 | 1013.1 |
| 20260504045657 | 43 | 354 | 0.0 | 0.0 | 0.00 | 0.00 | 0.00 | 92 | 1012.9 |
| 20260504045152 | 43 | 355 | 0.0 | 0.0 | 0.00 | 0.00 | 0.00 | 92 | 1013.0 |
| 20260504044650 | 43 | 356 | 0.9 | 0.9 | 0.00 | 0.00 | 0.00 | 91 | 1012.9 |
| 20260504044147 | 44 | 231 | 0.0 | 0.0 | 0.00 | 0.00 | 0.00 | 91 | 1012.7 |
| 20260504043644 | 43 | 231 | 0.0 | 0.0 | 0.00 | 0.00 | 0.00 | 91 | 1012.8 |
| 20260504043141 | 44 | 231 | 0.0 | 0.0 | 0.00 | 0.00 | 0.00 | 91 | 1012.7 |
| 20260504042639 | 44 | 231 | 0.0 | 0.0 | 0.00 | 0.00 | 0.00 | 91 | 1012.9 |
| 20260504042135 | 44 | 231 | 0.0 | 0.0 | 0.00 | 0.00 | 0.00 | 90 | 1012.8 |
| 20260504041631 | 44 | 231 | 0.0 | 0.0 | 0.00 | 0.00 | 0.00 | 90 | 1012.8 |
| 20260504041127 | 44 | 231 | 0.0 | 0.0 | 0.00 | 0.00 | 0.00 | 90 | 1012.9 |
| 20260504040624 | 44 | 231 | 0.0 | 0.0 | 0.00 | 0.00 | 0.00 | 90 | 1012.8 |
| 20260504040121 | 44 | 231 | 0.0 | 0.0 | 0.00 | 0.00 | 0.00 | 90 | 1012.9 |
| 20260504035618 | 44 | 231 | 0.0 | 0.0 | 0.00 | 0.00 | 0.00 | 90 | 1013.0 |
| 20260504035114 | 44 | 231 | 0.0 | 0.0 | 0.00 | 0.00 | 0.00 | 89 | 1012.9 |
| 20260504034613 | 44 | 231 | 0.0 | 0.0 | 0.00 | 0.00 | 0.00 | 89 | 1012.8 |
| 20260504034109 | 44 | 231 | 0.0 | 0.0 | 0.00 | 0.00 | 0.00 | 89 | 1012.8 |
| 20260504033607 | 44 | 231 | 0.0 | 0.0 | 0.00 | 0.00 | 0.00 | 89 | 1013.0 |
| 20260504033104 | 45 | 231 | 0.0 | 0.0 | 0.00 | 0.00 | 0.00 | 88 | 1013.0 |
| 20260504032601 | 45 | 231 | 0.0 | 0.0 | 0.00 | 0.00 | 0.00 | 88 | 1013.1 |
| 20260504032058 | 45 | 231 | 0.0 | 0.0 | 0.00 | 0.00 | 0.00 | 88 | 1013.0 |
| 20260504031555 | 45 | 231 | 0.0 | 0.0 | 0.00 | 0.00 | 0.00 | 87 | 1013.1 |
| 20260504031051 | 45 | 231 | 0.0 | 0.0 | 0.00 | 0.00 | 0.00 | 87 | 1013.2 |
| 20260504030548 | 45 | 231 | 0.0 | 0.0 | 0.00 | 0.00 | 0.00 | 86 | 1013.0 |
| 20260504030044 | 45 | 231 | 0.0 | 0.0 | 0.00 | 0.00 | 0.00 | 86 | 1013.2 |
| 20260504025542 | 46 | 231 | 0.0 | 0.0 | 0.00 | 0.00 | 0.00 | 85 | 1013.3 |
| 20260504025038 | 46 | 231 | 0.0 | 0.0 | 0.00 | 0.00 | 0.00 | 85 | 1013.3 |
| 20260504024535 | 46 | 231 | 0.0 | 0.0 | 0.00 | 0.00 | 0.00 | 85 | 1013.2 |
| 20260504024032 | 46 | 231 | 0.0 | 0.0 | 0.00 | 0.00 | 0.00 | 85 | 1013.1 |
| 20260504023529 | 46 | 231 | 0.0 | 0.0 | 0.00 | 0.00 | 0.00 | 84 | 1013.2 |
| 20260504023025 | 47 | 231 | 0.0 | 0.0 | 0.00 | 0.00 | 0.00 | 84 | 1013.0 |
| 20260504022520 | 47 | 231 | 0.0 | 0.0 | 0.00 | 0.00 | 0.00 | 83 | 1013.2 |
| 20260504022017 | 47 | 231 | 0.0 | 0.0 | 0.00 | 0.00 | 0.00 | 83 | 1013.0 |
| 20260504021515 | 47 | 231 | 0.0 | 0.0 | 0.00 | 0.00 | 0.00 | 83 | 1012.8 |
| 20260504021012 | 47 | 231 | 0.0 | 0.0 | 0.00 | 0.00 | 0.00 | 82 | 1012.7 |
| 20260504020509 | 47 | 231 | 0.0 | 0.0 | 0.00 | 0.00 | 0.00 | 81 | 1012.7 |
| 20260504020005 | 48 | 231 | 0.0 | 0.0 | 0.00 | 0.00 | 0.00 | 80 | 1012.5 |
| 20260504015502 | 48 | 231 | 0.0 | 0.0 | 0.00 | 0.00 | 0.00 | 79 | 1012.5 |
| 20260504014957 | 48 | 231 | 0.0 | 0.0 | 0.00 | 0.00 | 0.00 | 79 | 1012.2 |
| 20260504014453 | 49 | 231 | 0.0 | 0.0 | 0.00 | 0.00 | 0.00 | 78 | 1012.2 |
| 20260504013950 | 49 | 231 | 0.0 | 0.0 | 0.00 | 0.00 | 0.00 | 77 | 1012.3 |
| 20260504013449 | 49 | 231 | 0.0 | 0.0 | 0.00 | 0.00 | 0.00 | 77 | 1012.3 |
| 20260504012944 | 50 | 231 | 0.0 | 0.0 | 0.00 | 0.00 | 0.00 | 75 | 1012.2 |
| 20260504012443 | 50 | 231 | 0.0 | 0.0 | 0.00 | 0.00 | 0.00 | 75 | 1012.1 |
| 20260504011941 | 50 | 231 | 0.0 | 0.0 | 0.00 | 0.00 | 0.00 | 74 | 1012.3 |
| 20260504011437 | 51 | 231 | 0.0 | 0.0 | 0.00 | 0.00 | 0.00 | 73 | 1012.1 |
| 20260504010933 | 51 | 231 | 0.0 | 0.0 | 0.00 | 0.00 | 0.00 | 73 | 1012.0 |
| 20260504010429 | 51 | 231 | 0.0 | 0.0 | 0.00 | 0.00 | 0.00 | 72 | 1012.0 |
| 20260504005925 | 52 | 231 | 0.0 | 0.0 | 0.00 | 0.00 | 0.00 | 71 | 1012.0 |
| 20260504005422 | 52 | 230 | 0.0 | 0.0 | 0.00 | 0.00 | 0.00 | 70 | 1011.8 |
| 20260504004919 | 53 | 230 | 0.0 | 0.0 | 0.00 | 0.00 | 0.00 | 68 | 1011.9 |
| 20260504004417 | 53 | 230 | 0.0 | 0.0 | 0.00 | 0.00 | 0.00 | 68 | 1012.0 |
| 20260504003914 | 54 | 230 | 0.0 | 0.0 | 0.00 | 0.00 | 0.00 | 66 | 1012.0 |
| 20260504003410 | 54 | 230 | 0.0 | 0.0 | 0.00 | 0.00 | 0.00 | 65 | 1011.8 |
| 20260504002907 | 55 | 230 | 0.0 | 0.0 | 0.00 | 0.00 | 0.00 | 62 | 1011.7 |
| 20260504002404 | 56 | 231 | 0.0 | 0.0 | 0.00 | 0.00 | 0.00 | 62 | 1011.5 |
| 20260504001901 | 56 | 230 | 0.0 | 0.0 | 0.00 | 0.00 | 0.00 | 60 | 1011.6 |
| 20260504001359 | 57 | 231 | 0.0 | 0.0 | 0.00 | 0.00 | 0.00 | 59 | 1011.5 |
| 20260504000855 | 58 | 231 | 0.0 | 0.0 | 0.00 | 0.00 | 0.00 | 55 | 1011.6 |
| 20260504000354 | 59 | 230 | 0.0 | 0.0 | 0.00 | 0.00 | 0.00 | 54 | 1011.4 |
| 20260503235850 | 60 | 230 | 0.0 | 0.0 | 0.00 | 0.00 | 0.00 | 52 | 1011.5 |
| 20260503235348 | 60 | 230 | 0.0 | 0.0 | 0.00 | 0.00 | 0.00 | 46 | 1011.4 |
| 20260503234844 | 61 | 230 | 0.0 | 0.0 | 0.00 | 0.00 | 0.00 | 43 | 1011.5 |
| 20260503234342 | 62 | 230 | 0.0 | 0.9 | 0.00 | 0.00 | 0.00 | 42 | 1011.4 |
| 20260503233840 | 62 | 230 | 0.0 | 0.0 | 0.00 | 0.00 | 0.00 | 41 | 1011.3 |
| 20260503233336 | 62 | 230 | 0.0 | 0.0 | 0.00 | 0.00 | 0.00 | 41 | 1011.5 |
| 20260503232832 | 62 | 230 | 0.0 | 0.0 | 0.00 | 0.00 | 0.00 | 39 | 1011.5 |
| 20260503232330 | 63 | 230 | 0.0 | 0.0 | 0.00 | 0.00 | 0.00 | 40 | 1011.4 |
| 20260503231827 | 63 | 231 | 0.0 | 0.0 | 0.00 | 0.00 | 0.00 | 39 | 1011.5 |
| 20260503231324 | 63 | 230 | 0.0 | 0.9 | 0.00 | 0.00 | 0.00 | 37 | 1011.4 |
| 20260503230820 | 63 | 230 | 0.0 | 0.0 | 0.00 | 0.00 | 0.00 | 41 | 1011.5 |
| 20260503230318 | 64 | 228 | 0.9 | 0.9 | 0.00 | 0.00 | 0.00 | 38 | 1011.4 |
| 20260503225815 | 63 | 250 | 0.0 | 0.9 | 0.00 | 0.00 | 0.00 | 37 | 1011.6 |
| 20260503225311 | 64 | 250 | 0.0 | 0.0 | 0.00 | 0.00 | 0.00 | 38 | 1011.4 |
| 20260503224807 | 64 | 231 | 0.0 | 0.0 | 0.00 | 0.00 | 0.00 | 38 | 1011.5 |
| 20260503224305 | 64 | 254 | 0.0 | 0.0 | 0.00 | 0.00 | 0.00 | 37 | 1011.3 |
| 20260503223802 | 64 | 220 | 0.0 | 0.0 | 0.00 | 0.00 | 0.00 | 37 | 1011.7 |
| 20260503223300 | 64 | 249 | 0.0 | 0.0 | 0.00 | 0.00 | 0.00 | 37 | 1011.6 |
| 20260503222755 | 64 | 249 | 0.0 | 0.0 | 0.00 | 0.00 | 0.00 | 38 | 1011.6 |
| 20260503222254 | 65 | 250 | 0.0 | 0.0 | 0.00 | 0.00 | 0.00 | 41 | 1011.6 |
| 20260503221752 | 65 | 243 | 0.0 | 0.0 | 0.00 | 0.00 | 0.00 | 35 | 1011.8 |
| 20260503221249 | 65 | 287 | 0.9 | 0.9 | 0.00 | 0.00 | 0.00 | 34 | 1011.7 |
| 20260503220746 | 65 | 264 | 0.0 | 0.0 | 0.00 | 0.00 | 0.00 | 36 | 1011.6 |
| 20260503220243 | 65 | 201 | 0.0 | 0.0 | 0.00 | 0.00 | 0.00 | 33 | 1012.0 |
| 20260503215739 | 65 | 225 | 0.0 | 0.9 | 0.00 | 0.00 | 0.00 | 37 | 1011.8 |
| 20260503215237 | 65 | 232 | 0.9 | 0.9 | 0.00 | 0.00 | 0.00 | 36 | 1011.8 |
| 20260503214735 | 65 | 293 | 0.9 | 1.7 | 0.00 | 0.00 | 0.00 | 31 | 1011.9 |
| 20260503214231 | 65 | 234 | 0.9 | 1.7 | 0.00 | 0.00 | 0.00 | 34 | 1012.1 |
| 20260503213729 | 66 | 224 | 0.9 | 0.9 | 0.00 | 0.00 | 0.00 | 32 | 1012.0 |
| 20260503213226 | 66 | 31 | 0.9 | 0.9 | 0.00 | 0.00 | 0.00 | 32 | 1012.1 |
| 20260503212723 | 66 | 279 | 0.0 | 0.0 | 0.00 | 0.00 | 0.00 | 33 | 1012.4 |
| 20260503212221 | 66 | 300 | 1.7 | 1.7 | 0.00 | 0.00 | 0.00 | 31 | 1012.3 |
| 20260503211718 | 66 | 313 | 0.9 | 1.7 | 0.00 | 0.00 | 0.00 | 30 | 1012.2 |
| 20260503211214 | 66 | 258 | 0.9 | 0.9 | 0.00 | 0.00 | 0.00 | 34 | 1012.4 |
| 20260503210710 | 66 | 256 | 0.9 | 0.9 | 0.00 | 0.00 | 0.00 | 33 | 1012.5 |
| 20260503210207 | 66 | 259 | 0.9 | 0.9 | 0.00 | 0.00 | 0.00 | 34 | 1012.5 |
| 20260503205703 | 66 | 216 | 0.9 | 0.9 | 0.00 | 0.00 | 0.00 | 31 | 1012.6 |
| 20260503205159 | 66 | 71 | 0.9 | 1.7 | 0.00 | 0.00 | 0.00 | 31 | 1012.5 |
| 20260503204655 | 67 | 263 | 2.6 | 2.6 | 0.00 | 0.00 | 0.00 | 33 | 1012.6 |
| 20260503204153 | 67 | 237 | 1.7 | 1.7 | 0.00 | 0.00 | 0.00 | 33 | 1012.5 |
| 20260503203650 | 68 | 255 | 0.9 | 0.9 | 0.00 | 0.00 | 0.00 | 30 | 1012.8 |
| 20260503203148 | 67 | 238 | 0.9 | 0.9 | 0.00 | 0.00 | 0.00 | 30 | 1012.8 |
| 20260503202644 | 68 | 249 | 0.9 | 0.9 | 0.00 | 0.00 | 0.00 | 32 | 1012.8 |
| 20260503202143 | 69 | 304 | 0.0 | 0.0 | 0.00 | 0.00 | 0.00 | 31 | 1012.7 |
| 20260503201641 | 68 | 271 | 0.0 | 0.9 | 0.00 | 0.00 | 0.00 | 30 | 1012.9 |
| 20260503201138 | 68 | 210 | 0.9 | 0.9 | 0.00 | 0.00 | 0.00 | 32 | 1013.1 |
| 20260503200633 | 68 | 234 | 0.0 | 0.9 | 0.00 | 0.00 | 0.00 | 32 | 1013.2 |
| 20260503200130 | 68 | 267 | 0.9 | 1.7 | 0.00 | 0.00 | 0.00 | 32 | 1013.0 |
| 20260503195627 | 68 | 227 | 0.9 | 1.7 | 0.00 | 0.00 | 0.00 | 33 | 1013.2 |
| 20260503195124 | 68 | 268 | 0.0 | 0.9 | 0.00 | 0.00 | 0.00 | 33 | 1013.3 |
| 20260503194621 | 67 | 277 | 1.7 | 1.7 | 0.00 | 0.00 | 0.00 | 30 | 1013.4 |
| 20260503194116 | 67 | 289 | 2.6 | 2.6 | 0.00 | 0.00 | 0.00 | 32 | 1013.6 |
| 20260503193613 | 68 | 270 | 0.9 | 0.9 | 0.00 | 0.00 | 0.00 | 31 | 1013.4 |
| 20260503193109 | 67 | 247 | 1.7 | 1.7 | 0.00 | 0.00 | 0.00 | 30 | 1013.4 |
| 20260503192605 | 67 | 222 | 0.9 | 1.7 | 0.00 | 0.00 | 0.00 | 33 | 1013.7 |
| 20260503192101 | 67 | 179 | 2.6 | 2.6 | 0.00 | 0.00 | 0.00 | 31 | 1013.6 |
| 20260503191558 | 66 | 304 | 1.7 | 1.7 | 0.00 | 0.00 | 0.00 | 31 | 1013.9 |
| 20260503191054 | 66 | 233 | 2.6 | 2.6 | 0.00 | 0.00 | 0.00 | 32 | 1013.8 |
| 20260503190551 | 67 | 243 | 1.7 | 1.7 | 0.00 | 0.00 | 0.00 | 32 | 1014.1 |
| 20260503190049 | 66 | 277 | 1.7 | 1.7 | 0.00 | 0.00 | 0.00 | 30 | 1013.9 |
| 20260503185545 | 66 | 276 | 0.9 | 0.9 | 0.00 | 0.00 | 0.00 | 30 | 1014.0 |
| 20260503185045 | 66 | 281 | 0.9 | 0.9 | 0.00 | 0.00 | 0.00 | 30 | 1014.3 |
| 20260503184541 | 66 | 32 | 1.7 | 2.6 | 0.00 | 0.00 | 0.00 | 30 | 1014.3 |
| 20260503184038 | 66 | 272 | 0.9 | 1.7 | 0.00 | 0.00 | 0.00 | 30 | 1014.2 |
| 20260503183534 | 65 | 308 | 2.6 | 2.6 | 0.00 | 0.00 | 0.00 | 29 | 1014.4 |
| 20260503183031 | 65 | 281 | 1.7 | 2.6 | 0.00 | 0.00 | 0.00 | 31 | 1014.3 |